FLOCK 4V-26

Last updated on Sat Nov 28 2020 00:02:02 GMT+0000 (Coordinated Universal Time)

1 46825U 20061BQ 20332.47500764 .00001205 00000-0 68348-4 0 9998 2 46825 97.4675 44.0350 0005672 325.1212 34.9677 15.14830694 4480

Satellite not in orbit

FLOCK 4V-26